Epoch 2005 Aug. 18.0 TT = JDT 2453600.5 T 2005 Aug. 22.03996 TT MPC q 1.1254437 (2000.0) P Q z +0.0013862 Peri. 80.04415 +0.13771453 -0.98949251 +/-0.0000381 Node 3.24018 +0.26929563 -0.00538032 e 0.9984399 Incl. 51.18011 +0.95316031 +0.14448398
m1 = 10.0 + 5 logΔ + 11.5 log r